TimeCST,TemperatureF,Dew PointF,Humidity,Sea Level PressureIn,VisibilityMPH,Wind Direction,Wind SpeedMPH,Gust SpeedMPH,PrecipitationIn,Events,Conditions,WindDirDegrees,DateUTC
12:15 AM,43.9,39.2,84,30.29,10.0,North,6.9,-,N/A,,Overcast,360,2013-01-03 06:15:00
12:35 AM,43.9,38.8,82,30.29,10.0,North,8.1,-,N/A,,Overcast,360,2013-01-03 06:35:00
12:55 AM,43.9,38.7,82,30.29,10.0,North,6.9,-,N/A,,Overcast,360,2013-01-03 06:55:00
1:15 AM,44.1,38.7,81,30.29,10.0,North,6.9,-,N/A,,Overcast,360,2013-01-03 07:15:00
1:35 AM,44.2,39.0,82,30.29,10.0,North,6.9,-,N/A,,Overcast,10,2013-01-03 07:35:00
1:55 AM,44.6,38.8,80,30.29,10.0,North,8.1,-,N/A,,Overcast,10,2013-01-03 07:55:00
2:15 AM,44.8,38.5,79,30.29,10.0,North,8.1,-,N/A,,Overcast,10,2013-01-03 08:15:00
2:35 AM,44.8,38.5,79,30.29,10.0,North,10.4,-,N/A,,Overcast,10,2013-01-03 08:35:00
2:55 AM,44.8,38.7,79,30.29,10.0,North,9.2,-,N/A,,Overcast,10,2013-01-03 08:55:00
3:15 AM,45.0,38.8,79,30.29,10.0,North,8.1,-,N/A,,Overcast,360,2013-01-03 09:15:00
3:35 AM,44.8,38.8,80,30.30,10.0,North,10.4,-,N/A,,Overcast,360,2013-01-03 09:35:00
3:55 AM,44.8,39.0,80,30.30,10.0,North,9.2,-,N/A,,Overcast,10,2013-01-03 09:55:00
4:15 AM,45.0,38.8,79,30.30,10.0,North,10.4,-,N/A,,Overcast,10,2013-01-03 10:15:00
4:35 AM,45.0,38.5,78,30.29,10.0,NNE,9.2,-,N/A,,Overcast,20,2013-01-03 10:35:00
4:55 AM,45.0,37.9,76,30.30,10.0,NNE,12.7,-,N/A,,Overcast,20,2013-01-03 10:55:00
5:15 AM,45.0,37.6,75,30.30,10.0,NNE,11.5,-,N/A,,Overcast,20,2013-01-03 11:15:00
5:35 AM,45.0,37.8,76,30.31,10.0,NNE,12.7,-,N/A,,Overcast,20,2013-01-03 11:35:00
5:55 AM,45.0,37.8,76,30.31,10.0,NNE,13.8,-,N/A,,Overcast,20,2013-01-03 11:55:00
6:15 AM,44.8,37.4,75,30.31,10.0,NNE,13.8,18.4,N/A,,Overcast,20,2013-01-03 12:15:00
6:35 AM,44.8,37.4,75,30.31,10.0,NNE,12.7,-,N/A,,Overcast,20,2013-01-03 12:35:00
6:55 AM,44.8,37.2,75,30.32,10.0,NNE,13.8,-,N/A,,Overcast,30,2013-01-03 12:55:00
7:35 AM,44.8,37.2,75,30.34,10.0,NNE,11.5,-,N/A,,Overcast,20,2013-01-03 13:35:00
7:55 AM,44.8,37.0,74,30.35,10.0,NNE,11.5,-,N/A,,Overcast,20,2013-01-03 13:55:00
8:15 AM,45.0,36.9,73,30.36,10.0,NNE,13.8,-,N/A,,Overcast,20,2013-01-03 14:15:00
8:35 AM,45.1,36.7,72,30.37,10.0,North,12.7,16.1,N/A,,Overcast,10,2013-01-03 14:35:00
8:55 AM,45.3,36.5,71,30.38,10.0,NNE,11.5,-,N/A,,Overcast,20,2013-01-03 14:55:00
9:15 AM,45.5,36.1,70,30.38,10.0,NNE,13.8,-,N/A,,Overcast,20,2013-01-03 15:15:00
9:35 AM,45.7,36.1,69,30.39,10.0,NNE,11.5,16.1,N/A,,Overcast,30,2013-01-03 15:35:00
9:55 AM,45.7,36.3,70,30.40,10.0,NNE,13.8,-,N/A,,Overcast,30,2013-01-03 15:55:00
10:15 AM,46.0,36.1,68,30.40,10.0,NNE,12.7,-,N/A,,Overcast,30,2013-01-03 16:15:00
10:35 AM,46.0,36.1,68,30.40,10.0,NNE,15.0,18.4,N/A,,Overcast,20,2013-01-03 16:35:00
10:55 AM,46.2,36.0,67,30.39,10.0,NNE,13.8,18.4,N/A,,Overcast,30,2013-01-03 16:55:00
11:15 AM,46.4,36.3,68,30.39,10.0,NNE,15.0,-,N/A,,Overcast,20,2013-01-03 17:15:00
11:35 AM,46.8,35.8,66,30.39,10.0,NNE,12.7,-,N/A,,Overcast,30,2013-01-03 17:35:00
11:55 AM,47.3,35.6,64,30.38,10.0,North,15.0,18.4,N/A,,Overcast,10,2013-01-03 17:55:00
12:15 PM,47.8,35.2,62,30.37,10.0,North,15.0,-,N/A,,Overcast,10,2013-01-03 18:15:00
12:35 PM,47.7,35.1,62,30.35,10.0,North,13.8,-,N/A,,Overcast,10,2013-01-03 18:35:00
12:55 PM,48.0,34.3,59,30.34,10.0,North,15.0,-,N/A,,Overcast,10,2013-01-03 18:55:00
1:15 PM,48.7,34.0,57,30.34,10.0,North,12.7,-,N/A,,Overcast,10,2013-01-03 19:15:00
1:35 PM,49.3,33.3,54,30.33,10.0,NNE,13.8,-,N/A,,Overcast,30,2013-01-03 19:35:00
1:55 PM,50.0,33.1,52,30.33,10.0,NNE,15.0,-,N/A,,Overcast,30,2013-01-03 19:55:00
2:15 PM,50.2,32.7,51,30.33,10.0,NNE,15.0,-,N/A,,Overcast,30,2013-01-03 20:15:00
2:35 PM,50.4,32.2,50,30.33,10.0,NE,15.0,-,N/A,,Overcast,40,2013-01-03 20:35:00
2:55 PM,51.1,32.5,49,30.33,10.0,NNE,13.8,18.4,N/A,,Overcast,30,2013-01-03 20:55:00
3:15 PM,51.3,32.4,48,30.34,10.0,NNE,12.7,-,N/A,,Overcast,30,2013-01-03 21:15:00
3:35 PM,51.3,32.5,49,30.34,10.0,NNE,10.4,-,N/A,,Overcast,30,2013-01-03 21:35:00
3:55 PM,51.6,32.4,48,30.34,10.0,NNE,11.5,-,N/A,,Overcast,30,2013-01-03 21:55:00
4:15 PM,51.8,31.8,47,30.35,10.0,NNE,12.7,-,N/A,,Overcast,30,2013-01-03 22:15:00
4:35 PM,51.6,31.6,46,30.35,10.0,NNE,12.7,-,N/A,,Overcast,20,2013-01-03 22:35:00
4:55 PM,51.4,31.6,47,30.35,10.0,NNE,10.4,-,N/A,,Overcast,20,2013-01-03 22:55:00
5:15 PM,51.1,32.5,49,30.36,10.0,NNE,8.1,-,N/A,,Overcast,30,2013-01-03 23:15:00
5:35 PM,50.9,33.6,52,30.37,10.0,NNE,9.2,-,N/A,,Overcast,20,2013-01-03 23:35:00
6:15 PM,50.2,33.6,53,30.37,10.0,North,8.1,-,N/A,,Overcast,360,2013-01-04 00:15:00
6:35 PM,50.0,34.3,55,30.38,10.0,North,8.1,-,N/A,,Overcast,10,2013-01-04 00:35:00
6:55 PM,50.0,35.1,57,30.39,10.0,North,5.8,-,N/A,,Overcast,10,2013-01-04 00:55:00
7:15 PM,50.0,35.4,57,30.39,10.0,NNE,6.9,-,N/A,,Overcast,20,2013-01-04 01:15:00
7:35 PM,50.0,34.7,56,30.39,10.0,NNE,8.1,-,N/A,,Overcast,20,2013-01-04 01:35:00
7:55 PM,50.0,35.1,57,30.39,10.0,NNE,9.2,-,N/A,,Overcast,20,2013-01-04 01:55:00
8:15 PM,49.8,36.0,59,30.40,10.0,North,8.1,-,N/A,,Overcast,360,2013-01-04 02:15:00
8:35 PM,49.5,36.3,61,30.39,10.0,North,10.4,-,N/A,,Overcast,10,2013-01-04 02:35:00
8:55 PM,49.3,36.5,61,30.39,10.0,NNE,8.1,-,N/A,,Overcast,20,2013-01-04 02:55:00
9:15 PM,49.3,36.7,62,30.39,10.0,NNE,9.2,-,N/A,,Overcast,30,2013-01-04 03:15:00
9:35 PM,49.5,36.9,62,30.38,10.0,NNE,8.1,-,N/A,,Overcast,30,2013-01-04 03:35:00
9:55 PM,49.5,36.1,60,30.37,10.0,NE,10.4,-,N/A,,Overcast,40,2013-01-04 03:55:00
10:15 PM,49.5,35.8,59,30.37,10.0,NE,9.2,-,N/A,,Overcast,40,2013-01-04 04:15:00
10:35 PM,49.5,35.6,59,30.37,10.0,NNE,10.4,16.1,N/A,,Overcast,30,2013-01-04 04:35:00
10:55 PM,49.3,35.8,60,30.36,10.0,NNE,9.2,-,N/A,,Overcast,30,2013-01-04 04:55:00
11:15 PM,48.9,36.5,62,30.36,10.0,NNE,9.2,-,N/A,,Scattered Clouds,30,2013-01-04 05:15:00
11:35 PM,47.5,37.4,68,30.36,10.0,NNE,6.9,-,N/A,,Clear,20,2013-01-04 05:35:00
11:55 PM,47.1,37.4,69,30.36,10.0,North,5.8,-,N/A,,Mostly Cloudy,350,2013-01-04 05:55:00